| time (UTC) | temp F | wind direction | speed knots | gust knots | rain 1hr in | rain 24hr in | rain mn in | humidity % | barometer mb |
| 20260505184101 | 68 | 227 | 10.4 | 19.1 | 0.00 | 0.00 | 0.00 | 63 | 1008.7 |
| 20260505183558 | 67 | 263 | 7.8 | 17.4 | 0.00 | 0.00 | 0.00 | 64 | 1008.7 |
| 20260505183101 | 67 | 182 | 7.8 | 17.4 | 0.00 | 0.00 | 0.00 | 65 | 1008.9 |
| 20260505182600 | 67 | 262 | 8.7 | 17.4 | 0.00 | 0.00 | 0.00 | 65 | 1009.1 |
| 20260505182100 | 67 | 225 | 7.0 | 19.1 | 0.00 | 0.00 | 0.00 | 65 | 1009.1 |
| 20260505181600 | 67 | 244 | 9.6 | 19.1 | 0.00 | 0.00 | 0.00 | 64 | 1009.1 |
| 20260505181100 | 67 | 273 | 10.4 | 20.9 | 0.00 | 0.00 | 0.00 | 64 | 1008.9 |
| 20260505180600 | 67 | 260 | 11.3 | 20.9 | 0.00 | 0.00 | 0.00 | 64 | 1008.9 |
| 20260505175602 | 67 | 237 | 7.8 | 17.4 | 0.00 | 0.00 | 0.00 | 65 | 1008.9 |
| 20260505175100 | 67 | 261 | 7.8 | 15.6 | 0.00 | 0.00 | 0.00 | 65 | 1009.0 |
| 20260505174559 | 67 | 263 | 7.0 | 13.9 | 0.00 | 0.00 | 0.00 | 65 | 1009.0 |
| 20260505174100 | 67 | 233 | 6.1 | 13.9 | 0.00 | 0.00 | 0.00 | 65 | 1008.9 |
| 20260505173600 | 67 | 248 | 6.1 | 13.0 | 0.00 | 0.00 | 0.00 | 66 | 1008.9 |
| 20260505173101 | 67 | 252 | 6.1 | 13.0 | 0.00 | 0.00 | 0.00 | 66 | 1009.0 |
| 20260505172558 | 67 | 253 | 5.2 | 13.0 | 0.00 | 0.00 | 0.00 | 66 | 1008.8 |
| 20260505172100 | 68 | 291 | 5.2 | 13.9 | 0.00 | 0.00 | 0.00 | 65 | 1008.9 |
| 20260505171559 | 68 | 277 | 4.3 | 17.4 | 0.00 | 0.00 | 0.00 | 65 | 1009.0 |
| 20260505171104 | 68 | 257 | 8.7 | 18.2 | 0.00 | 0.00 | 0.00 | 64 | 1009.1 |
| 20260505170600 | 68 | 253 | 7.0 | 18.2 | 0.00 | 0.00 | 0.00 | 64 | 1009.1 |
| 20260505170105 | 68 | 267 | 7.8 | 14.8 | 0.00 | 0.00 | 0.00 | 63 | 1009.1 |
| 20260505165600 | 69 | 257 | 5.2 | 19.1 | 0.00 | 0.00 | 0.00 | 64 | 1009.1 |
| 20260505165104 | 69 | 250 | 8.7 | 19.1 | 0.00 | 0.00 | 0.00 | 63 | 1009.1 |
| 20260505164633 | 69 | 242 | 7.8 | 18.2 | 0.00 | 0.00 | 0.00 | 63 | 1009.1 |
| 20260505164057 | 69 | 252 | 7.0 | 16.5 | 0.00 | 0.00 | 0.00 | 63 | 1009.1 |
| 20260505163600 | 69 | 245 | 7.8 | 16.5 | 0.00 | 0.00 | 0.00 | 63 | 1009.0 |
| 20260505163059 | 70 | 263 | 6.1 | 14.8 | 0.00 | 0.00 | 0.00 | 64 | 1008.9 |
| 20260505162600 | 69 | 249 | 7.0 | 13.9 | 0.00 | 0.00 | 0.00 | 64 | 1008.9 |
| 20260505162100 | 69 | 275 | 7.0 | 16.5 | 0.00 | 0.00 | 0.00 | 64 | 1008.9 |
| 20260505161600 | 69 | 271 | 8.7 | 16.5 | 0.00 | 0.00 | 0.00 | 63 | 1008.9 |
| 20260505161101 | 69 | 221 | 7.8 | 16.5 | 0.00 | 0.00 | 0.00 | 64 | 1008.9 |
| 20260505160601 | 68 | 240 | 7.0 | 20.9 | 0.00 | 0.00 | 0.00 | 64 | 1009.0 |
| 20260505160109 | 68 | 253 | 8.7 | 20.9 | 0.00 | 0.00 | 0.00 | 63 | 1009.0 |
| 20260505153100 | 68 | 239 | 9.6 | 18.2 | 0.00 | 0.00 | 0.00 | 65 | 1008.9 |
| 20260505152600 | 68 | 279 | 9.6 | 18.2 | 0.00 | 0.00 | 0.00 | 65 | 1008.9 |
| 20260505152101 | 67 | 249 | 9.6 | 15.6 | 0.00 | 0.00 | 0.00 | 67 | 1008.8 |
| 20260505151606 | 66 | 288 | 6.1 | 18.2 | 0.00 | 0.00 | 0.00 | 69 | 1008.8 |
| 20260505151100 | 66 | 244 | 7.8 | 18.2 | 0.00 | 0.00 | 0.00 | 68 | 1008.8 |
| 20260505150602 | 65 | 270 | 8.7 | 17.4 | 0.00 | 0.00 | 0.00 | 68 | 1008.8 |
| 20260505140557 | 61 | 244 | 7.0 | 17.4 | 0.00 | 0.00 | 0.00 | 80 | 1008.1 |
| 20260505140117 | 60 | 225 | 5.2 | 17.4 | 0.00 | 0.00 | 0.00 | 80 | 1008.2 |
| 20260505130103 | 58 | 265 | 5.2 | 12.2 | 0.00 | 0.00 | 0.00 | 84 | 1008.1 |
| 20260505124605 | 58 | 242 | 7.0 | 13.0 | 0.00 | 0.00 | 0.00 | 84 | 1008.1 |
| 20260505124057 | 58 | 231 | 4.3 | 13.0 | 0.00 | 0.00 | 0.00 | 85 | 1008.2 |
| 20260505123559 | 58 | 248 | 7.0 | 15.6 | 0.00 | 0.00 | 0.00 | 85 | 1008.3 |
| 20260505123100 | 58 | 218 | 5.2 | 16.5 | 0.00 | 0.00 | 0.00 | 85 | 1008.2 |
| 20260505122559 | 57 | 258 | 7.8 | 16.5 | 0.00 | 0.00 | 0.00 | 85 | 1008.1 |
| 20260505122057 | 57 | 192 | 6.1 | 13.0 | 0.00 | 0.00 | 0.00 | 85 | 1007.9 |
| 20260505121602 | 57 | 218 | 6.1 | 13.0 | 0.00 | 0.00 | 0.00 | 86 | 1007.9 |
| 20260505121057 | 57 | 221 | 6.1 | 13.0 | 0.00 | 0.00 | 0.00 | 86 | 1008.0 |
| 20260505120559 | 57 | 234 | 3.5 | 13.0 | 0.00 | 0.00 | 0.00 | 87 | 1007.8 |
| 20260505120115 | 56 | 188 | 6.1 | 13.9 | 0.00 | 0.00 | 0.00 | 87 | 1007.6 |
| 20260505115600 | 56 | 178 | 5.2 | 13.9 | 0.00 | 0.00 | 0.00 | 87 | 1007.3 |
| 20260505115100 | 56 | 237 | 7.0 | 13.9 | 0.00 | 0.00 | 0.00 | 87 | 1007.0 |
| 20260505114602 | 56 | 182 | 6.1 | 12.2 | 0.00 | 0.00 | 0.00 | 87 | 1006.8 |
| 20260505114100 | 56 | 190 | 5.2 | 10.4 | 0.00 | 0.00 | 0.00 | 87 | 1006.8 |
| 20260505113559 | 56 | 211 | 5.2 | 10.4 | 0.00 | 0.00 | 0.00 | 87 | 1007.1 |
| 20260505113109 | 56 | 207 | 4.3 | 8.7 | 0.00 | 0.00 | 0.00 | 86 | 1007.3 |
| 20260505112600 | 56 | 191 | 2.6 | 7.8 | 0.00 | 0.00 | 0.00 | 86 | 1007.3 |
| 20260505112100 | 56 | 215 | 3.5 | 7.8 | 0.00 | 0.00 | 0.00 | 86 | 1007.2 |
| 20260505111559 | 56 | 197 | 3.5 | 10.4 | 0.00 | 0.00 | 0.00 | 86 | 1007.5 |
| 20260505111057 | 56 | 211 | 2.6 | 10.4 | 0.00 | 0.00 | 0.00 | 85 | 1007.4 |
| 20260505110557 | 56 | 229 | 4.3 | 7.8 | 0.00 | 0.00 | 0.00 | 85 | 1007.6 |
| 20260505110109 | 56 | 243 | 3.5 | 8.7 | 0.00 | 0.00 | 0.00 | 85 | 1007.5 |
| 20260505102100 | 58 | 267 | 3.5 | 8.7 | 0.00 | 0.00 | 0.00 | 81 | 1007.7 |
| 20260505101600 | 58 | 280 | 3.5 | 10.4 | 0.00 | 0.00 | 0.00 | 80 | 1007.8 |
| 20260505101100 | 59 | 269 | 3.5 | 10.4 | 0.00 | 0.00 | 0.00 | 79 | 1007.9 |
| 20260505100600 | 59 | 239 | 5.2 | 13.0 | 0.00 | 0.00 | 0.00 | 77 | 1008.0 |
| 20260505100100 | 59 | 279 | 6.1 | 13.0 | 0.00 | 0.00 | 0.00 | 76 | 1007.9 |
| 20260505095600 | 60 | 239 | 2.6 | 7.8 | 0.00 | 0.00 | 0.00 | 75 | 1007.9 |
| 20260505095059 | 60 | 252 | 2.6 | 7.8 | 0.00 | 0.00 | 0.00 | 75 | 1007.8 |
| 20260505094603 | 60 | 258 | 2.6 | 6.1 | 0.00 | 0.00 | 0.00 | 74 | 1007.8 |
| 20260505094059 | 60 | 257 | 1.7 | 5.2 | 0.00 | 0.00 | 0.00 | 74 | 1007.7 |
| 20260505093556 | 60 | 277 | 1.7 | 6.1 | 0.00 | 0.00 | 0.00 | 74 | 1007.7 |
| 20260505093103 | 60 | 280 | 1.7 | 6.1 | 0.00 | 0.00 | 0.00 | 73 | 1007.8 |
| 20260505092558 | 60 | 267 | 1.7 | 6.1 | 0.00 | 0.00 | 0.00 | 73 | 1007.6 |
| 20260505092056 | 60 | 252 | 1.7 | 6.1 | 0.00 | 0.00 | 0.00 | 73 | 1007.7 |
| 20260505091614 | 61 | 271 | 2.6 | 6.1 | 0.00 | 0.00 | 0.00 | 72 | 1007.6 |
| 20260505091059 | 61 | 275 | 2.6 | 7.0 | 0.00 | 0.00 | 0.00 | 72 | 1007.5 |
| 20260505090600 | 61 | 269 | 1.7 | 8.7 | 0.00 | 0.00 | 0.00 | 72 | 1007.1 |
| 20260505090100 | 61 | 257 | 3.5 | 10.4 | 0.00 | 0.00 | 0.00 | 71 | 1007.3 |
| 20260505085600 | 61 | 252 | 5.2 | 13.0 | 0.00 | 0.00 | 0.00 | 71 | 1007.2 |
| 20260505085100 | 61 | 317 | 5.2 | 13.0 | 0.00 | 0.00 | 0.00 | 71 | 1007.3 |
| 20260505084559 | 62 | 292 | 5.2 | 13.0 | 0.00 | 0.00 | 0.00 | 70 | 1007.3 |
| 20260505084100 | 62 | 259 | 6.1 | 12.2 | 0.00 | 0.00 | 0.00 | 70 | 1007.4 |
| 20260505083601 | 62 | 232 | 5.2 | 13.9 | 0.00 | 0.00 | 0.00 | 69 | 1007.2 |
| 20260505083058 | 62 | 290 | 6.1 | 13.9 | 0.00 | 0.00 | 0.00 | 69 | 1007.3 |
| 20260505082600 | 61 | 281 | 6.1 | 12.2 | 0.00 | 0.00 | 0.00 | 69 | 1007.0 |
| 20260505082057 | 62 | 272 | 3.5 | 12.2 | 0.00 | 0.00 | 0.00 | 69 | 1007.0 |
| 20260505081600 | 62 | 268 | 5.2 | 12.2 | 0.00 | 0.00 | 0.00 | 68 | 1006.8 |
| 20260505081100 | 62 | 282 | 4.3 | 15.6 | 0.00 | 0.00 | 0.00 | 68 | 1006.7 |
| 20260505080600 | 62 | 227 | 7.0 | 15.6 | 0.00 | 0.00 | 0.00 | 67 | 1006.6 |
| 20260505080106 | 63 | 235 | 8.7 | 15.6 | 0.00 | 0.00 | 0.00 | 67 | 1006.5 |
| 20260505075556 | 63 | 235 | 7.8 | 14.8 | 0.00 | 0.00 | 0.00 | 67 | 1006.1 |
| 20260505075059 | 63 | 221 | 7.0 | 13.9 | 0.00 | 0.00 | 0.00 | 66 | 1006.2 |
| 20260505074559 | 63 | 238 | 7.0 | 13.9 | 0.00 | 0.00 | 0.00 | 66 | 1006.0 |
| 20260505074059 | 63 | 275 | 7.0 | 15.6 | 0.00 | 0.00 | 0.00 | 66 | 1006.0 |
| 20260505073600 | 63 | 186 | 7.8 | 15.6 | 0.00 | 0.00 | 0.00 | 66 | 1005.9 |
| 20260505073105 | 63 | 190 | 7.8 | 14.8 | 0.00 | 0.00 | 0.00 | 66 | 1005.8 |
| 20260505072600 | 63 | 200 | 7.8 | 15.6 | 0.00 | 0.00 | 0.00 | 66 | 1005.9 |
| 20260505072059 | 63 | 211 | 6.1 | 15.6 | 0.00 | 0.00 | 0.00 | 66 | 1005.9 |
| 20260505071558 | 63 | 195 | 7.0 | 15.6 | 0.00 | 0.00 | 0.00 | 66 | 1005.9 |
| 20260505071100 | 63 | 205 | 7.8 | 15.6 | 0.00 | 0.00 | 0.00 | 66 | 1005.9 |
| 20260505070600 | 63 | 202 | 7.0 | 15.6 | 0.00 | 0.00 | 0.00 | 66 | 1005.9 |
| 20260505070058 | 63 | 232 | 7.0 | 15.6 | 0.00 | 0.00 | 0.00 | 67 | 1005.9 |
| 20260505065556 | 63 | 217 | 7.0 | 15.6 | 0.00 | 0.00 | 0.00 | 67 | 1005.9 |
| 20260505065059 | 63 | 209 | 7.8 | 15.6 | 0.00 | 0.00 | 0.00 | 66 | 1005.8 |
| 20260505064601 | 63 | 221 | 7.8 | 13.9 | 0.00 | 0.00 | 0.00 | 67 | 1005.9 |
| 20260505064059 | 63 | 189 | 8.7 | 15.6 | 0.00 | 0.00 | 0.00 | 66 | 1005.9 |
| 20260505063556 | 63 | 211 | 6.1 | 15.6 | 0.00 | 0.00 | 0.00 | 66 | 1005.9 |
| 20260505063114 | 63 | 216 | 5.2 | 12.2 | 0.00 | 0.00 | 0.00 | 67 | 1005.8 |
| 20260505062600 | 63 | 192 | 7.8 | 12.2 | 0.00 | 0.00 | 0.00 | 67 | 1005.8 |
| 20260505062100 | 63 | 215 | 5.2 | 12.2 | 0.00 | 0.00 | 0.00 | 67 | 1005.8 |
| 20260505061558 | 63 | 209 | 4.3 | 12.2 | 0.00 | 0.00 | 0.00 | 67 | 1005.6 |
| 20260505061056 | 63 | 234 | 6.1 | 13.9 | 0.00 | 0.00 | 0.00 | 67 | 1005.7 |
| 20260505060600 | 63 | 227 | 5.2 | 13.9 | 0.00 | 0.00 | 0.00 | 67 | 1005.6 |
| 20260505060059 | 63 | 200 | 6.1 | 13.9 | 0.00 | 0.00 | 0.00 | 67 | 1005.7 |
| 20260505055600 | 63 | 205 | 5.2 | 12.2 | 0.00 | 0.00 | 0.00 | 67 | 1005.6 |
| 20260505055057 | 63 | 231 | 4.3 | 12.2 | 0.00 | 0.00 | 0.00 | 67 | 1005.7 |
| 20260505054609 | 63 | 225 | 5.2 | 12.2 | 0.00 | 0.00 | 0.00 | 67 | 1005.7 |
| 20260505054103 | 64 | 206 | 5.2 | 10.4 | 0.00 | 0.00 | 0.00 | 67 | 1005.7 |
| 20260505053556 | 64 | 211 | 4.3 | 9.6 | 0.00 | 0.00 | 0.00 | 67 | 1005.9 |
| 20260505053103 | 64 | 183 | 4.3 | 9.6 | 0.00 | 0.00 | 0.00 | 67 | 1005.9 |
| 20260505052556 | 64 | 193 | 3.5 | 8.7 | 0.00 | 0.00 | 0.00 | 67 | 1005.9 |
| 20260505052059 | 64 | 186 | 3.5 | 10.4 | 0.00 | 0.00 | 0.00 | 66 | 1005.9 |
| 20260505051559 | 64 | 242 | 5.2 | 10.4 | 0.00 | 0.00 | 0.00 | 66 | 1006.1 |
| 20260505051100 | 65 | 192 | 3.5 | 10.4 | 0.00 | 0.00 | 0.00 | 66 | 1006.0 |
| 20260505050600 | 65 | 165 | 3.5 | 10.4 | 0.00 | 0.00 | 0.00 | 65 | 1006.0 |
| 20260505041600 | 65 | 221 | 5.2 | 10.4 | 0.00 | 0.00 | 0.00 | 65 | 1006.1 |
| 20260505041059 | 65 | 198 | 5.2 | 10.4 | 0.00 | 0.00 | 0.00 | 65 | 1006.1 |
| 20260505040600 | 65 | 209 | 5.2 | 12.2 | 0.00 | 0.00 | 0.00 | 65 | 1006.3 |
| 20260505040058 | 65 | 233 | 5.2 | 12.2 | 0.00 | 0.00 | 0.00 | 65 | 1006.4 |
| 20260505035559 | 65 | 188 | 4.3 | 10.4 | 0.00 | 0.00 | 0.00 | 65 | 1006.4 |
| 20260505035102 | 65 | 215 | 6.1 | 13.0 | 0.00 | 0.00 | 0.00 | 65 | 1006.3 |
| 20260505034558 | 65 | 226 | 5.2 | 13.0 | 0.00 | 0.00 | 0.00 | 64 | 1006.4 |
| 20260505034059 | 65 | 237 | 5.2 | 13.0 | 0.00 | 0.00 | 0.00 | 65 | 1006.4 |
| 20260505033602 | 65 | 219 | 4.3 | 13.0 | 0.00 | 0.00 | 0.00 | 64 | 1006.3 |
| 20260505033059 | 66 | 182 | 6.1 | 13.9 | 0.00 | 0.00 | 0.00 | 64 | 1006.2 |
| 20260505032559 | 65 | 208 | 7.0 | 13.9 | 0.00 | 0.00 | 0.00 | 64 | 1006.4 |
| 20260505032055 | 65 | 208 | 6.1 | 13.0 | 0.00 | 0.00 | 0.00 | 65 | 1006.2 |
| 20260505031607 | 65 | 198 | 6.1 | 11.3 | 0.00 | 0.00 | 0.00 | 65 | 1006.2 |
| 20260505031057 | 64 | 215 | 3.5 | 10.4 | 0.00 | 0.00 | 0.00 | 66 | 1006.1 |
| 20260505030600 | 64 | 219 | 3.5 | 7.8 | 0.00 | 0.00 | 0.00 | 66 | 1006.1 |
| 20260505030103 | 64 | 196 | 3.5 | 7.0 | 0.00 | 0.00 | 0.00 | 66 | 1006.2 |
| 20260505025557 | 63 | 196 | 2.6 | 7.0 | 0.00 | 0.00 | 0.00 | 66 | 1006.1 |
| 20260505025100 | 64 | 200 | 2.6 | 7.0 | 0.00 | 0.00 | 0.00 | 66 | 1006.1 |
| 20260505024606 | 64 | 192 | 2.6 | 7.0 | 0.00 | 0.00 | 0.00 | 66 | 1006.1 |
| 20260505024059 | 64 | 224 | 2.6 | 6.1 | 0.00 | 0.00 | 0.00 | 66 | 1006.0 |
| 20260505023556 | 64 | 188 | 1.7 | 5.2 | 0.00 | 0.00 | 0.00 | 65 | 1006.1 |
| 20260505023059 | 64 | 202 | 2.6 | 6.1 | 0.00 | 0.00 | 0.00 | 65 | 1006.0 |
| 20260505022556 | 64 | 212 | 2.6 | 6.1 | 0.00 | 0.00 | 0.00 | 64 | 1005.9 |
| 20260505022059 | 64 | 187 | 2.6 | 5.2 | 0.00 | 0.00 | 0.00 | 64 | 1006.0 |
| 20260505021600 | 64 | 203 | 2.6 | 7.0 | 0.00 | 0.00 | 0.00 | 64 | 1005.9 |
| 20260505021056 | 65 | 201 | 3.5 | 8.7 | 0.00 | 0.00 | 0.00 | 63 | 1006.0 |
| 20260505020559 | 65 | 195 | 3.5 | 8.7 | 0.00 | 0.00 | 0.00 | 63 | 1005.9 |
| 20260505020057 | 65 | 212 | 2.6 | 6.1 | 0.00 | 0.00 | 0.00 | 64 | 1005.9 |
| 20260505015600 | 65 | 211 | 2.6 | 6.1 | 0.00 | 0.01 | 0.00 | 64 | 1005.9 |
| 20260505015059 | 65 | 214 | 2.6 | 7.8 | 0.00 | 0.01 | 0.00 | 64 | 1005.9 |
| 20260505014610 | 65 | 202 | 2.6 | 7.8 | 0.00 | 0.01 | 0.00 | 64 | 1005.9 |
| 20260505014057 | 65 | 360 | 3.5 | 7.8 | 0.00 | 0.01 | 0.00 | 64 | 1005.9 |
| 20260505013556 | 65 | 360 | 2.6 | 7.8 | 0.00 | 0.01 | 0.00 | 65 | 1005.9 |
| 20260505013059 | 65 | 360 | 2.6 | 7.8 | 0.00 | 0.01 | 0.00 | 66 | 1005.8 |
| 20260505012600 | 65 | 360 | 2.6 | 5.2 | 0.00 | 0.01 | 0.00 | 67 | 1005.7 |
| 20260505012059 | 65 | 360 | 2.6 | 5.2 | 0.00 | 0.01 | 0.00 | 67 | 1005.6 |
| 20260505011608 | 65 | 360 | 2.6 | 5.2 | 0.00 | 0.01 | 0.00 | 67 | 1005.6 |
| 20260505011057 | 65 | 360 | 3.5 | 5.2 | 0.00 | 0.01 | 0.00 | 67 | 1005.4 |
| 20260505010559 | 65 | 360 | 2.6 | 5.2 | 0.00 | 0.01 | 0.00 | 66 | 1005.4 |
| 20260505010100 | 66 | 360 | 1.7 | 5.2 | 0.00 | 0.01 | 0.00 | 66 | 1005.5 |
| 20260505005559 | 66 | 200 | 2.6 | 5.2 | 0.00 | 0.03 | 0.00 | 65 | 1005.4 |
| 20260505005102 | 66 | 209 | 2.6 | 5.2 | 0.00 | 0.03 | 0.00 | 65 | 1005.4 |
| 20260505004600 | 67 | 197 | 1.7 | 6.1 | 0.00 | 0.03 | 0.00 | 64 | 1005.5 |
| 20260505004100 | 67 | 197 | 3.5 | 6.1 | 0.00 | 0.03 | 0.00 | 64 | 1005.5 |
| 20260505003559 | 67 | 209 | 2.6 | 7.0 | 0.00 | 0.03 | 0.00 | 63 | 1005.5 |
| 20260505003059 | 68 | 201 | 3.5 | 7.0 | 0.00 | 0.03 | 0.00 | 62 | 1005.4 |
| 20260505002600 | 68 | 171 | 2.6 | 7.0 | 0.00 | 0.03 | 0.00 | 62 | 1005.5 |
| 20260505002056 | 68 | 200 | 3.5 | 7.8 | 0.00 | 0.03 | 0.00 | 61 | 1005.5 |
| 20260505001600 | 69 | 205 | 3.5 | 7.8 | 0.00 | 0.03 | 0.00 | 61 | 1005.6 |
| 20260505001059 | 69 | 213 | 2.6 | 7.0 | 0.00 | 0.03 | 0.00 | 60 | 1005.6 |
| 20260505000559 | 69 | 218 | 2.6 | 7.8 | 0.00 | 0.03 | 0.00 | 60 | 1005.6 |
| 20260505000115 | 70 | 229 | 3.5 | 8.7 | 0.00 | 0.03 | 0.00 | 59 | 1005.5 |
| 20260504235602 | 70 | 180 | 4.3 | 9.6 | 0.00 | 0.03 | 0.00 | 59 | 1005.5 |
| 20260504235058 | 70 | 215 | 4.3 | 10.4 | 0.00 | 0.03 | 0.00 | 58 | 1005.6 |
| 20260504234600 | 71 | 213 | 5.2 | 12.2 | 0.00 | 0.03 | 0.00 | 58 | 1005.6 |
| 20260504234056 | 71 | 236 | 6.1 | 13.9 | 0.00 | 0.03 | 0.00 | 58 | 1005.6 |
| 20260504233558 | 71 | 227 | 5.2 | 13.9 | 0.00 | 0.03 | 0.00 | 58 | 1005.5 |
| 20260504233109 | 71 | 247 | 5.2 | 13.0 | 0.00 | 0.03 | 0.00 | 58 | 1005.7 |
| 20260504232557 | 71 | 200 | 6.1 | 13.0 | 0.00 | 0.03 | 0.00 | 58 | 1005.8 |
| 20260504232056 | 71 | 227 | 7.0 | 13.0 | 0.00 | 0.03 | 0.00 | 57 | 1005.8 |
| 20260504231601 | 72 | 246 | 7.0 | 13.0 | 0.00 | 0.03 | 0.00 | 57 | 1005.9 |
| 20260504231056 | 72 | 253 | 7.0 | 14.8 | 0.00 | 0.03 | 0.00 | 57 | 1006.0 |
| 20260504230556 | 71 | 210 | 7.0 | 14.8 | 0.00 | 0.03 | 0.00 | 57 | 1005.9 |
| 20260504230057 | 71 | 207 | 8.7 | 17.4 | 0.00 | 0.03 | 0.00 | 57 | 1006.0 |
| 20260504225557 | 71 | 234 | 7.8 | 17.4 | 0.00 | 0.03 | 0.00 | 57 | 1006.0 |
| 20260504225057 | 72 | 255 | 7.8 | 17.4 | 0.00 | 0.03 | 0.00 | 56 | 1006.0 |
| 20260504224609 | 72 | 237 | 8.7 | 15.6 | 0.00 | 0.03 | 0.00 | 57 | 1006.2 |
| 20260504224057 | 72 | 218 | 7.8 | 18.2 | 0.00 | 0.03 | 0.00 | 56 | 1006.0 |
| 20260504223606 | 72 | 202 | 7.8 | 18.2 | 0.00 | 0.03 | 0.00 | 57 | 1006.1 |
| 20260504223129 | 72 | 197 | 8.7 | 16.5 | 0.00 | 0.03 | 0.00 | 57 | 1006.2 |
| 20260504222557 | 72 | 248 | 8.7 | 16.5 | 0.00 | 0.03 | 0.00 | 58 | 1006.4 |
| 20260504222057 | 71 | 254 | 9.6 | 16.5 | 0.00 | 0.03 | 0.00 | 58 | 1006.4 |
| 20260504221558 | 71 | 277 | 9.6 | 15.6 | 0.00 | 0.03 | 0.00 | 58 | 1006.5 |
| 20260504221103 | 71 | 210 | 9.6 | 21.7 | 0.00 | 0.03 | 0.00 | 59 | 1006.6 |
| 20260504220600 | 71 | 226 | 9.6 | 21.7 | 0.00 | 0.03 | 0.00 | 59 | 1006.7 |
| 20260504220100 | 70 | 225 | 9.6 | 20.0 | 0.00 | 0.03 | 0.00 | 59 | 1006.7 |
| 20260504215600 | 71 | 267 | 12.2 | 20.0 | 0.00 | 0.03 | 0.00 | 58 | 1006.6 |
| 20260504215057 | 71 | 243 | 7.8 | 21.7 | 0.00 | 0.03 | 0.00 | 59 | 1006.5 |
| 20260504214610 | 70 | 254 | 9.6 | 21.7 | 0.00 | 0.03 | 0.00 | 59 | 1006.6 |
| 20260504214059 | 70 | 217 | 8.7 | 15.6 | 0.00 | 0.03 | 0.00 | 59 | 1006.7 |
| 20260504213559 | 70 | 234 | 6.1 | 20.0 | 0.00 | 0.03 | 0.00 | 60 | 1006.4 |
| 20260504213110 | 69 | 250 | 9.6 | 20.0 | 0.00 | 0.03 | 0.00 | 59 | 1006.5 |
| 20260504212559 | 69 | 223 | 9.6 | 20.0 | 0.00 | 0.03 | 0.00 | 59 | 1006.6 |
| 20260504212059 | 69 | 255 | 9.6 | 20.0 | 0.00 | 0.03 | 0.00 | 60 | 1006.8 |
| 20260504211609 | 69 | 232 | 7.8 | 20.0 | 0.00 | 0.03 | 0.00 | 61 | 1006.9 |
| 20260504211057 | 68 | 244 | 9.6 | 20.0 | 0.00 | 0.03 | 0.00 | 63 | 1007.0 |
| 20260504210603 | 68 | 269 | 11.3 | 19.1 | 0.00 | 0.03 | 0.00 | 62 | 1007.0 |
| 20260504210101 | 68 | 288 | 10.4 | 20.0 | 0.00 | 0.03 | 0.00 | 61 | 1007.3 |
| 20260504205603 | 68 | 254 | 8.7 | 20.0 | 0.00 | 0.03 | 0.00 | 61 | 1007.5 |
| 20260504205100 | 68 | 263 | 7.0 | 15.6 | 0.00 | 0.03 | 0.00 | 60 | 1007.2 |
| 20260504204559 | 69 | 270 | 7.8 | 15.6 | 0.00 | 0.03 | 0.00 | 60 | 1006.8 |
| 20260504204100 | 69 | 251 | 6.1 | 15.6 | 0.00 | 0.03 | 0.00 | 61 | 1006.9 |
| 20260504203602 | 69 | 223 | 7.0 | 15.6 | 0.00 | 0.03 | 0.00 | 60 | 1006.8 |
| 20260504203111 | 69 | 267 | 7.0 | 15.6 | 0.00 | 0.03 | 0.00 | 61 | 1007.0 |
| 20260504202600 | 68 | 229 | 7.0 | 15.6 | 0.00 | 0.03 | 0.00 | 60 | 1007.0 |
| 20260504202100 | 68 | 245 | 7.0 | 15.6 | 0.00 | 0.03 | 0.00 | 63 | 1006.9 |
| 20260504201601 | 67 | 189 | 6.1 | 19.1 | 0.00 | 0.03 | 0.00 | 63 | 1007.0 |
| 20260504201101 | 67 | 265 | 10.4 | 19.1 | 0.00 | 0.03 | 0.00 | 63 | 1007.3 |
| 20260504200600 | 67 | 195 | 10.4 | 21.7 | 0.00 | 0.03 | 0.00 | 63 | 1007.5 |
| 20260504200120 | 68 | 234 | 12.2 | 21.7 | 0.00 | 0.03 | 0.00 | 63 | 1007.6 |
| 20260504195600 | 68 | 228 | 12.2 | 21.7 | 0.00 | 0.03 | 0.00 | 61 | 1007.8 |
| 20260504195059 | 69 | 223 | 9.6 | 24.3 | 0.00 | 0.03 | 0.00 | 61 | 1007.9 |
| 20260504194604 | 69 | 250 | 9.6 | 24.3 | 0.00 | 0.03 | 0.00 | 61 | 1008.0 |
| 20260504194101 | 69 | 244 | 13.0 | 24.3 | 0.00 | 0.03 | 0.00 | 60 | 1008.1 |
| 20260504193600 | 69 | 276 | 13.0 | 22.6 | 0.00 | 0.03 | 0.00 | 60 | 1008.1 |
| 20260504193059 | 69 | 244 | 10.4 | 20.0 | 0.00 | 0.03 | 0.00 | 60 | 1008.1 |
| 20260504192601 | 70 | 200 | 10.4 | 20.0 | 0.00 | 0.03 | 0.00 | 59 | 1008.0 |
| 20260504192100 | 71 | 227 | 11.3 | 19.1 | 0.00 | 0.03 | 0.00 | 58 | 1008.0 |
| 20260504191603 | 71 | 242 | 7.0 | 21.7 | 0.00 | 0.03 | 0.00 | 60 | 1007.8 |
| 20260504191100 | 71 | 276 | 9.6 | 22.6 | 0.00 | 0.03 | 0.00 | 58 | 1008.2 |
| 20260504190600 | 71 | 244 | 11.3 | 22.6 | 0.00 | 0.03 | 0.00 | 59 | 1008.1 |
| 20260504185600 | 71 | 248 | 10.4 | 17.4 | 0.00 | 0.03 | 0.00 | 59 | 1007.8 |
| 20260504185059 | 71 | 207 | 10.4 | 19.1 | 0.00 | 0.03 | 0.00 | 58 | 1007.7 |
| 20260504184601 | 71 | 195 | 9.6 | 21.7 | 0.00 | 0.03 | 0.00 | 59 | 1007.6 |